[[{"header":{"parameterUnit":"m.s-1","parameterCategory":1,"la1":30.2991,"la2":30.254,"lo1":-89.0895,"lo2":-89.0444,"dy":0.0017,"dx":0.0017,"nx":28,"ny":28,"refTime":"2024-05-01T21:00:00:Z","depth":0,"parameterNumber":2,"parameterNumberName":"U-component_of_WINDS"},"data":[0,0,0,0,0,0,0,0,0,0,0,0,0,0,0,0,0,0,0,0,0,0,0,0,0,0,0,0,0,0,0,0,0,0,0,0,0,0,0,0,0,0,0,0,0,0,0,0,0,0,0,0,0,0,0,0,0,0,-1.9109,-1.9109,0,-1.9117,-1.9117,-1.9117,-1.908,-1.9079,-1.9078,-1.9077,-1.9085,-1.9086,-1.9087,0,0,0,0,0,0,0,0,0,0,0,0,0,-1.9062,-1.9063,-1.9109,-1.9109,-1.9109,-1.9117,-1.9117,-1.9117,-1.908,-1.9079,-1.9077,-1.9076,-1.9085,-1.9086,-1.9088,0,0,0,0,0,0,0,0,0,0,0,0,0,-1.9077,-1.9063,-1.9109,-1.9092,-1.909,-1.9117,-1.9117,-1.9117,-1.908,-1.9079,-1.9077,-1.9076,-1.9084,-1.9086,-1.9088,-1.9132,0,0,-1.9093,-1.9094,0,0,0,0,0,0,0,0,-1.9076,-1.9079,-1.9094,-1.9093,-1.9091,-1.9096,-1.9104,-1.9122,-1.9081,-1.9084,-1.9077,-1.9075,-1.909,-1.9091,-1.9096,-1.9132,-1.9133,-1.9094,-1.9095,-1.9096,-1.9096,0,0,0,0,0,0,0,-1.9075,-1.9078,-1.9112,-1.9094,-1.9093,-1.9084,-1.9084,-1.9107,-1.9096,-1.9084,-1.9081,-1.9082,-1.9089,-1.9095,-1.9096,-1.9133,-1.9094,-1.9095,-1.9096,-1.9097,-1.9206,-1.9207,0,0,0,0,0,0,-1.9077,-1.9078,-1.9112,-1.9113,-1.908,-1.9086,-1.9086,-1.9096,-1.9096,-1.9094,-1.9084,-1.9081,-1.9092,-1.9094,-1.9096,-1.9148,-1.9096,-1.9097,-1.9098,-1.9204,-1.9206,-1.9208,0,0,0,0,0,0,-1.9076,-1.908,-1.9112,-1.9094,-1.9098,-1.9088,-1.91,-1.9097,-1.9103,-1.9096,-1.9094,-1.9092,-1.9091,-1.9094,-1.9123,-1.9148,-1.9098,-1.91,-1.9202,-1.9205,-1.9207,-1.9252,0,0,0,0,0,0,-1.9075,-1.908,-1.9096,-1.9095,-1.9099,-1.9139,-1.9101,-1.9098,-1.9106,-1.9102,-1.9103,-1.9101,-1.909,-1.9121,-1.9125,-1.9149,-1.9101,-1.92,-1.9203,-1.9206,-1.9248,-1.9256,-1.9262,0,0,0,0,0,-1.9073,-1.9109,-1.9097,-1.9102,-1.9119,-1.914,-1.9142,-1.9129,-1.9108,-1.9125,-1.912,-1.9101,-1.9145,-1.9124,-1.9129,-1.9154,-1.9198,-1.9202,-1.9206,-1.9245,-1.9254,-1.9262,0,0,0,0,0,0,-1.9113,-1.9108,-1.9096,-1.9132,-1.9137,-1.9134,-1.9154,-1.9139,-1.9149,-1.9145,-1.9128,-1.9128,-1.9161,-1.916,-1.9138,-1.9197,-1.9168,-1.9173,-1.9196,-1.9204,-1.9211,-1.9211,-1.9103,0,0,0,0,0,-1.9126,-1.9143,-1.9138,-1.9171,-1.9174,-1.9164,-1.9172,-1.9161,-1.9166,-1.9167,-1.9165,-1.917,-1.9185,-1.9195,-1.9208,-1.9248,-1.9248,-1.9268,-1.9275,-1.928,-1.9285,-1.9306,-1.9315,-1.9221,-1.9221,-1.9221,0,0,-1.9153,-1.9153,-1.9165,-1.9179,-1.9181,-1.9199,-1.9166,-1.9186,-1.92,-1.917,-1.9198,-1.9197,-1.9201,-1.9236,-1.9252,-1.9237,-1.9311,-1.9286,-1.929,-1.9291,-1.9311,-1.932,-1.9328,-1.9224,-1.9223,-1.9223,0,0,-1.9212,-1.9213,-1.9241,-1.9244,-1.9248,-1.9241,-1.9248,-1.9247,-1.9245,-1.9273,-1.9251,-1.9267,-1.9293,-1.9297,-1.9302,-1.9363,-1.9346,-1.9368,-1.9405,-1.9426,-1.9433,-1.9439,-1.9461,-1.9469,-1.9373,-1.9373,-1.9373,0,-1.9245,-1.9271,-1.9257,-1.9279,-1.9286,-1.926,-1.9288,-1.9292,-1.93,-1.9306,-1.9289,-1.9321,-1.9322,-1.9358,-1.9373,-1.9378,-1.9385,-1.9368,-1.9433,-1.9439,-1.9445,-1.9466,-1.9474,-1.9375,-1.9375,-1.9375,-1.9375,0,-1.9312,-1.9331,-1.9352,-1.9361,-1.937,-1.9395,-1.9384,-1.9396,-1.9384,-1.938,-1.9408,-1.9409,-1.9422,-1.9429,-1.9418,-1.9464,-1.9455,-1.9436,-1.9406,-1.9457,-1.9476,-1.9484,-1.9379,-1.9378,-1.9378,-1.9377,0,0,-1.9395,-1.9396,-1.9404,-1.9408,-1.9411,-1.9425,-1.9449,-1.9462,-1.9472,-1.9479,-1.9498,-1.9521,-1.9504,-1.951,-1.9499,-1.9518,-1.9566,-1.9497,-1.9497,-1.9509,-1.9616,-1.963,-1.9639,-1.9555,-1.9556,-1.9557,-1.9616,0,-1.9452,-1.9493,-1.9481,-1.9522,-1.9539,-1.9515,-1.9536,-1.9541,-1.9537,-1.9551,-1.9547,-1.9563,-1.9539,-1.9543,-1.956,-1.9556,-1.9587,-1.9552,-1.9573,-1.9574,-1.9572,-1.9649,-1.9663,-1.9718,-1.9623,-1.9624,-1.9625,0,-1.9524,-1.9534,-1.9577,-1.9577,-1.9584,-1.9603,-1.9614,-1.9628,-1.9632,-1.9628,-1.9635,-1.9621,-1.9645,-1.9616,-1.9648,-1.9624,-1.9632,-1.9632,-1.9634,-1.9635,-1.9602,-1.9652,-1.9735,-1.9743,-1.9637,-1.9636,-1.9635,0,-1.9581,-1.9605,-1.9633,-1.9637,-1.9638,-1.9652,-1.9653,-1.9656,-1.9665,-1.9674,-1.968,-1.9692,-1.9699,-1.9709,-1.9698,-1.9678,-1.9732,-1.9702,-1.9729,-1.973,-1.9741,-1.9741,-1.9827,-1.9747,-1.9747,-1.9747,-1.9747,0,-1.9646,-1.9673,-1.9658,-1.9676,-1.9706,-1.9691,-1.9721,-1.972,-1.9723,-1.974,-1.9721,-1.9737,-1.9722,-1.9737,-1.9729,-1.9757,-1.9761,-1.9758,-1.9755,-1.976,-1.976,-1.9764,-1.976,-1.9749,-1.9749,-1.9748,-1.9748,0,-1.9713,-1.9705,-1.9734,-1.9733,-1.9734,-1.9756,-1.9755,-1.9771,-1.9766,-1.9788,-1.9792,-1.9785,-1.9801,-1.9792,-1.981,-1.9804,-1.9841,-1.9833,-1.9839,-1.9837,-1.9865,-1.9862,-1.9956,-1.9968,-1.9881,-1.9882,-1.9883,0,-1.9755,-1.9775,-1.9776,-1.9786,-1.9789,-1.9805,-1.9814,-1.9801,-1.9811,-1.9818,-1.9833,-1.9849,-1.986,-1.9888,-1.9884,-1.9898,-1.989,-1.9922,-1.9892,-1.9895,-1.989,-1.9889,-1.9891,-1.9928,-1.9929,-1.993,-1.9931,0,-1.983,-1.9825,-1.9838,-1.985,-1.9861,-1.987,-1.9877,-1.9886,-1.9874,-1.9886,-1.9903,-1.9912,-1.993,-1.9945,-1.9957,-1.9958,-1.9942,-1.994,-1.9947,-1.9951,-1.9954,-1.9953,-1.9855,-1.9938,-1.9937,-1.9937,-1.9936,-1.9936,-1.9885,-1.9902,-1.9906,-1.9921,-1.9926,-1.9933,-1.9948,-1.9945,-1.9959,-1.9973,-1.9965,-1.9985,-1.9989,-2.0003,-2.0006,-2.0022,-2.0009,-2.0019,-2.0022,-2.0024,-2.0028,-1.9952,-2.0024,-2.0024,-2.0024,-2.0023,-2.0023,0,-1.9959,-1.9961,-1.9975,-1.9986,-1.9998,-1.9983,-1.999,-2.0001,-2.0019,-2.0024,-2.0036,-2.0056,-2.0071,-2.0069,-2.0082,-2.0095,-2.0089,-2.0099,-2.0098,-2.0099,-2.0039,-2.0031,-2.0105,-2.0105,-2.0105,-2.0105,-2.0105,-2.0105,-1.9999,-2.0027,-2.0022,-2.0052,-2.0053,-2.0073,-2.0078,-2.0085,-2.0089,-2.0112,-2.0125,-2.0123,-2.0125,-2.0139,-2.0152,-2.0151,-2.0157,-2.0171,-2.0167,-2.0111,-2.0103,-2.0095,-2.0088,-2.0172,-2.0172,-2.0225,-2.0226,-2.0226]},{"header":{"parameterUnit":"m.s-1","parameterCategory":1,"la1":30.2991,"la2":30.254,"lo1":-89.0895,"lo2":-89.0444,"dy":0.0017,"dx":0.0017,"nx":28,"ny":28,"refTime":"2024-05-01T21:00:00:Z","depth":0,"parameterNumber":3,"parameterNumberName":"V-component_of_WINDS"},"data":[0,0,0,0,0,0,0,0,0,0,0,0,0,0,0,0,0,0,0,0,0,0,0,0,0,0,0,0,0,0,0,0,0,0,0,0,0,0,0,0,0,0,0,0,0,0,0,0,0,0,0,0,0,0,0,0,0,0,1.7943,1.7943,0,1.7944,1.7944,1.7944,1.7915,1.7914,1.7913,1.7913,1.7913,1.7914,1.7915,0,0,0,0,0,0,0,0,0,0,0,0,0,1.7917,1.7917,1.7943,1.7943,1.7944,1.7944,1.7944,1.7944,1.7915,1.7914,1.7913,1.7912,1.7913,1.7914,1.7915,0,0,0,0,0,0,0,0,0,0,0,0,0,1.7924,1.7918,1.7943,1.7929,1.7928,1.7944,1.7944,1.7944,1.7915,1.7914,1.7913,1.7912,1.7913,1.7914,1.7915,1.7945,0,0,1.7918,1.7919,0,0,0,0,0,0,0,0,1.7924,1.7925,1.7931,1.793,1.7929,1.7928,1.7935,1.7945,1.7916,1.792,1.7913,1.7911,1.7919,1.792,1.7922,1.7945,1.7945,1.7918,1.7919,1.7919,1.792,0,0,0,0,0,0,0,1.7923,1.7925,1.7944,1.7931,1.793,1.7923,1.7922,1.7937,1.7926,1.7919,1.7917,1.7918,1.7918,1.7921,1.7922,1.7945,1.7918,1.7919,1.792,1.792,1.7994,1.7995,0,0,0,0,0,0,1.7925,1.7925,1.7944,1.7944,1.7923,1.7924,1.7924,1.793,1.7926,1.7924,1.7919,1.7917,1.792,1.7921,1.7922,1.7958,1.7919,1.792,1.7921,1.7993,1.7994,1.7996,0,0,0,0,0,0,1.7924,1.7927,1.7944,1.7934,1.7935,1.7926,1.7933,1.793,1.7933,1.7925,1.7923,1.7924,1.7919,1.792,1.794,1.7957,1.7921,1.7922,1.7991,1.7993,1.7995,1.8029,0,0,0,0,0,0,1.7924,1.7927,1.7938,1.7934,1.7936,1.7962,1.7934,1.7931,1.7935,1.7932,1.793,1.7928,1.7918,1.7938,1.7941,1.7958,1.7923,1.799,1.7992,1.7994,1.8027,1.8032,1.8037,0,0,0,0,0,1.7923,1.7947,1.7939,1.7941,1.795,1.7963,1.7964,1.7952,1.7937,1.7948,1.7943,1.7928,1.7955,1.7941,1.7943,1.7961,1.7988,1.7991,1.7994,1.8024,1.8031,1.8037,0,0,0,0,0,0,1.7953,1.7947,1.7937,1.7961,1.7963,1.7958,1.7971,1.7959,1.7965,1.7962,1.7947,1.7947,1.7969,1.7967,1.7951,1.7991,1.7969,1.7973,1.7991,1.7998,1.8003,1.8003,1.7924,0,0,0,0,0,1.7963,1.7974,1.7967,1.7989,1.7991,1.7981,1.7986,1.7977,1.7978,1.7978,1.7975,1.7976,1.7985,1.7991,1.7999,1.8026,1.8026,1.804,1.8045,1.805,1.8053,1.8068,1.8074,1.8005,1.8005,1.8005,0,0,1.7982,1.798,1.7988,1.7995,1.7995,1.8007,1.7982,1.7995,1.8004,1.798,1.7999,1.7996,1.7997,1.8021,1.8031,1.802,1.8072,1.8053,1.8057,1.8058,1.8072,1.8078,1.8084,1.8007,1.8007,1.8006,0,0,1.8024,1.8024,1.8042,1.8043,1.8044,1.8038,1.8042,1.8039,1.8037,1.8055,1.8038,1.8048,1.8064,1.8065,1.8068,1.8112,1.8098,1.8115,1.8142,1.8157,1.8162,1.8167,1.8183,1.8189,1.8118,1.8118,1.8118,0,1.8049,1.8066,1.8053,1.8068,1.8072,1.8052,1.8071,1.8072,1.8076,1.8079,1.8067,1.8086,1.8085,1.8109,1.812,1.8123,1.8128,1.8115,1.8162,1.8167,1.8171,1.8186,1.8192,1.812,1.812,1.812,1.8119,0,1.8096,1.8108,1.8123,1.8127,1.8133,1.8149,1.814,1.8147,1.8138,1.8133,1.8152,1.8151,1.8158,1.8163,1.8154,1.8186,1.8179,1.8165,1.8143,1.818,1.8194,1.82,1.8123,1.8122,1.8122,1.8121,0,0,1.8156,1.8154,1.816,1.8162,1.8162,1.8171,1.8187,1.8194,1.8201,1.8204,1.8218,1.8232,1.8219,1.8222,1.8213,1.8226,1.8262,1.821,1.821,1.822,1.8298,1.8308,1.8315,1.8253,1.8254,1.8255,1.8298,0,1.8197,1.8225,1.8214,1.8243,1.8254,1.8236,1.825,1.8252,1.8248,1.8257,1.8253,1.8263,1.8245,1.8247,1.8259,1.8255,1.8277,1.8252,1.8265,1.8266,1.8266,1.8322,1.8334,1.8374,1.8303,1.8304,1.8304,0,1.8248,1.8254,1.8284,1.8283,1.8287,1.83,1.8306,1.8315,1.8317,1.8314,1.8318,1.8306,1.8322,1.8301,1.8323,1.8306,1.8311,1.831,1.8311,1.8312,1.8287,1.8325,1.8387,1.8393,1.8313,1.8312,1.8312,0,1.829,1.8305,1.8325,1.8327,1.8326,1.8336,1.8336,1.8336,1.8342,1.8348,1.8351,1.8359,1.8363,1.8369,1.836,1.8345,1.8384,1.8361,1.8381,1.8381,1.839,1.8389,1.8454,1.8393,1.8393,1.8393,1.8393,0,1.8336,1.8355,1.8344,1.8356,1.8377,1.8365,1.8386,1.8384,1.8385,1.8397,1.8381,1.8393,1.838,1.839,1.8383,1.8403,1.8405,1.8402,1.84,1.8404,1.8404,1.8407,1.8404,1.8395,1.8394,1.8394,1.8394,0,1.8386,1.8379,1.84,1.8397,1.8397,1.8413,1.8411,1.8422,1.8418,1.8433,1.8436,1.8428,1.844,1.8431,1.8442,1.8438,1.8464,1.8458,1.8463,1.8462,1.8482,1.8481,1.8551,1.8559,1.8493,1.8494,1.8495,0,1.8416,1.8431,1.843,1.8437,1.8438,1.845,1.8455,1.8445,1.8451,1.8455,1.8466,1.8476,1.8484,1.8503,1.8498,1.8507,1.8501,1.8525,1.8502,1.8505,1.8502,1.8501,1.8503,1.853,1.853,1.8531,1.8531,0,1.8471,1.8467,1.8476,1.8484,1.8492,1.8497,1.8502,1.8508,1.8498,1.8506,1.8518,1.8524,1.8535,1.8546,1.8553,1.8553,1.8541,1.8539,1.8544,1.8548,1.855,1.8549,1.8476,1.8537,1.8537,1.8536,1.8536,1.8536,1.8512,1.8524,1.8526,1.8537,1.8539,1.8544,1.8555,1.8552,1.8562,1.8571,1.8564,1.8578,1.858,1.8588,1.859,1.8601,1.8591,1.8599,1.86,1.8602,1.8606,1.8549,1.8602,1.8602,1.8602,1.8602,1.8602,0,1.8566,1.8567,1.8577,1.8584,1.8593,1.8581,1.8586,1.8594,1.8606,1.8609,1.8617,1.8631,1.8641,1.8638,1.8647,1.8657,1.8651,1.8659,1.8659,1.8659,1.8614,1.8608,1.8664,1.8664,1.8664,1.8664,1.8664,1.8664,1.8596,1.8616,1.8612,1.8633,1.8634,1.8648,1.8651,1.8656,1.8658,1.8675,1.8683,1.8681,1.8682,1.8691,1.87,1.8699,1.8703,1.8714,1.8711,1.8668,1.8662,1.8656,1.8651,1.8715,1.8715,1.8755,1.8755,1.8756]}]]